カタログに戻る

COSMOS 2465

GLONASS

運用中ナビゲーションMEO
NORAD 37138·PAYLOAD·🇷🇺 Russia

打ち上げ Sep 2, 2010 から Baikonur Cosmodrome

Loading…

次のパス (今後24時間)

TLE

最新Source: Space-Track

元期: Sep 12, 2026, 14:21 UTC

1 37138U 10041B   26255.59795554  .00000008  00000-0  00000-0 0  9995
2 37138  63.9108 187.2487 0041121 181.5170   7.2114  2.13098344124725

AllMySatでCOSMOS 2465をリアルタイム追跡

Download on the App Store